Hourly Data Report for November 30, 2020

L'ASSOMPTION
QUEBEC
Current Station Operator: ECCC - MSC

45°48'34.000" N
73°26'05.000" W
21.00 m
7014160
71524
WEW

Download Data

Hourly Data (November 2020)
Hourly Data Report for November 30, 2020
TIME
LST
Temp Definition
°C
Dew Point Definition
°C
Rel Hum Definition
%
Precip. Amount Definition
mm

Wind Dir Definition
10's deg

Wind Spd Definition
km/h
Visibility Definition
km
Stn Press Definition
kPa
Hmdx Definition


Wind Chill Definition


Weather Definition


00:00 2.8 1.0 88 0.0 9 5   101.43     LegendNANA
01:00 2.1 0.4 88 0.0 6 4   101.42     LegendNANA
02:00 2.2 0.1 86 0.0 8 6   101.36     LegendNANA
03:00 2.0 0.3 88 0.0 4 4   101.34     LegendNANA
04:00 1.9 -0.2 86 0.0 5 7   101.27     LegendNANA
05:00 1.9 -0.1 87 0.0 6 8   101.23     LegendNANA
06:00 1.2 -0.3 89 0.0 2 7   101.20     LegendNANA
07:00 1.1 -0.2 91 0.0 1 6   101.19     LegendNANA
08:00 1.2 0.0 92 0.0 35 6   101.20     LegendNANA
09:00 1.9 0.2 88 0.0 3 7   101.07     LegendNANA
10:00 2.9 0.5 84 0.0 2 7   101.08     LegendNANA
11:00 3.7 0.8 82 0.0 2 7   101.01     LegendNANA
12:00 4.7 1.2 78 0.0 3 10   100.88     LegendNANA
13:00 4.4 1.4 81 0.0 2 10   100.83     LegendNANA
14:00 3.4 1.8 89 0.7 2 12   100.72     LegendNANA
15:00 3.2 2.4 95 2.5 2 12   100.58     LegendNANA
16:00 4.2 3.5 96 4.1 3 12   100.33     LegendNANA
17:00 4.8 4.1 95 5.4 5 20   100.00     LegendNANA
18:00 5.0 4.2 94 3.0 4 21   99.83     LegendNANA
19:00 5.1 4.4 95 1.7 4 12   99.64     LegendNANA
20:00 5.3 4.6 95 0.3 2 15   99.53     LegendNANA
21:00 5.5 4.8 96 0.0 2 12   99.43     LegendNANA
22:00 5.5 4.9 96 0.0 1 10   99.34     LegendNANA
23:00 5.3 4.8 96 0.0 1 10   99.38     LegendNANA

Notes on Data Quality.

Legend

  • E = Estimated
  • M = Missing
  • NA = Not Available*
  • [empty] = Indicates an unobserved value
Date modified: